Hourly Data Report for May 15, 2018

TORONTO CITY
ONTARIO
Current Station Operator: ECCC - MSC

43°40'00.000" N
79°24'00.000" W
112.50 m
6158355
71508
XTO

Download Data

Hourly Data (May 2018)
Hourly Data Report for May 15, 2018
TIME
LST
Temp Definition
°C
Dew Point Definition
°C
Rel Hum Definition
%
Precip. Amount Definition
mm

Wind Dir Definition
10's deg

Wind Spd Definition
km/h
Visibility Definition
km
Stn Press Definition
kPa
Hmdx Definition


Wind Chill Definition


Weather Definition


00:00 15.9 12.5 80 0.0 LegendMM LegendMM   99.63     LegendNANA
01:00 16.3 12.8 80 0.0 LegendMM LegendMM   99.57     LegendNANA
02:00 15.9 12.7 82 0.0 LegendMM LegendMM   99.47     LegendNANA
03:00 14.1 12.1 88 6.5 LegendMM LegendMM   99.54     LegendNANA
04:00 14.9 13.5 91 6.7 LegendMM LegendMM   99.36     LegendNANA
05:00 15.7 14.5 92 0.0 LegendMM LegendMM   99.43     LegendNANA
06:00 16.4 15.1 92 2.9 LegendMM LegendMM   99.53     LegendNANA
07:00 17.1 15.7 91 1.4 LegendMM LegendMM   99.41     LegendNANA
08:00 16.0 13.2 83 2.0 LegendMM LegendMM   99.64     LegendNANA
09:00 16.1 13.0 82 0.3 LegendMM LegendMM   99.69     LegendNANA
10:00 17.4 13.2 76 0.0 LegendMM LegendMM   99.69     LegendNANA
11:00 17.3 12.0 71 0.0 LegendMM LegendMM   99.89     LegendNANA
12:00 18.2 13.7 75 0.3 LegendMM LegendMM   99.98     LegendNANA
13:00 18.8 13.4 71 0.0 LegendMM LegendMM   99.95     LegendNANA
14:00 19.8 13.5 67 0.0 LegendMM LegendMM   99.95     LegendNANA
15:00 19.8 12.3 62 0.0 LegendMM LegendMM   99.98     LegendNANA
16:00 19.3 13.2 68 0.0 LegendMM LegendMM   99.99     LegendNANA
17:00 20.1 12.8 63 0.0 LegendMM LegendMM   100.02     LegendNANA
18:00 19.4 10.3 55 0.0 LegendMM LegendMM   100.05     LegendNANA
19:00 18.7 7.7 49 0.0 LegendMM LegendMM   100.13     LegendNANA
20:00 17.0 7.4 53 0.0 LegendMM LegendMM   100.20     LegendNANA
21:00 15.6 5.1 50 0.0 LegendMM LegendMM   100.28     LegendNANA
22:00 14.6 2.9 45 0.0 LegendMM LegendMM   100.34     LegendNANA
23:00 13.4 2.5 48 0.0 LegendMM LegendMM   100.38     LegendNANA

Notes on Data Quality.

Legend

  • E = Estimated
  • M = Missing
  • NA = Not Available*
  • [empty] = Indicates an unobserved value
Date modified: